{"data":{"norad_id":59305,"intl_designator":"2024-056K","name":"STARLINK-31500","alt_names":[],"object_type":"PAYLOAD","status":"ACTIVE","operator":null,"country":"US","launch_date":"2024-03-24","launch_site_code":"AFETR","launch_vehicle":null,"mission":null,"orbit_class":"UNKNOWN","rcs_meters":null,"size_class":null,"mass_kg":null,"dimensions":null,"purposes":["comms"],"wikipedia_slug":null,"has_3d_model":false,"image_url":null,"decayed_at":null,"tle_current":{"epoch":"2026-05-25T01:28:06.009024Z","epoch_age_seconds":76705,"freshness":"FRESH","line1":"1 59305U 24056K   26145.06118066  .00000175  00000+0  15886-4 0  9999","line2":"2 59305  43.0006 159.4632 0001206 275.1044  84.9670 15.27576041122837","mean_motion":15.27576041,"eccentricity":0.0001206,"inclination_deg":43.0006,"raan_deg":159.4632,"arg_perigee_deg":275.1044,"mean_anomaly_deg":84.967,"bstar":1.5886e-5,"rev_number":12283,"period_min":94.266993023623,"perigee_km":482.23349026264,"apogee_km":483.88841120836,"semimajor_km":6861.1979507355,"source":"CELESTRAK","updated_at":"2026-05-25T13:38:18.899558Z"}}}